Date String (YYYY-MM-DD hh:mm:ss) UTC,Instrument flags,Ambient pressure (hPa),Sample flow (lpm),Bypass flow (lpm),Sample temperature (°C),Ambient temperature (°C),ASC tube jacket temperature (°C),LED temperature (°C),Box temperature (°C),Sample RH (%),Span deviation,Mass concentration (μg/m³),Mass concentration (μg/m³),Mass concentration (μg/m³)
DateTimeUTC,F1_M11,P_M11,Q1_M11,Q2_M11,T1_M11,T2_M11,T3_M11,T4_M11,T5_M11,U1_M11,ZSPAN_M11,X0_M11,X2_M11,X1_M11
2023-05-01 20:00:00,,0827.5,5.00,0.00,29.3,28.0,00.0,37.6,30.8,14.6,0000.0,0021.21,0011.42,0009.42
2023-05-01 20:01:00,,0827.5,5.00,0.00,29.2,28.0,00.0,37.6,30.8,14.4,0000.0,0023.56,0011.51,0009.49
2023-05-01 20:02:00,,0827.5,5.00,0.00,29.3,28.0,00.0,37.6,30.8,14.3,0000.0,0024.58,0011.53,0009.52
2023-05-01 20:03:00,,0827.6,5.01,0.00,29.3,28.0,00.0,37.6,30.8,14.2,0000.0,0024.74,0011.49,0009.56
2023-05-01 20:04:00,,0827.5,5.01,0.00,29.3,28.0,00.0,37.6,30.8,14.5,0000.0,0024.97,0011.53,0009.59
2023-05-01 20:05:00,,0827.4,5.00,0.00,29.3,28.0,00.0,37.6,30.8,14.5,0000.0,0024.23,0011.50,0009.63
2023-05-01 20:06:00,,0827.4,5.00,0.00,29.3,28.0,00.0,37.6,30.8,14.1,0002.2,0024.55,0011.57,0009.70
2023-05-01 20:07:00,,0827.4,5.00,0.00,29.3,28.0,00.0,37.6,30.8,14.1,0005.8,0024.80,0011.63,0009.78
2023-05-01 20:08:00,,0827.4,4.99,0.00,29.3,28.0,00.0,37.6,30.8,14.2,0006.0,0024.37,0011.60,0009.82
2023-05-01 20:09:00,,0827.4,4.99,0.00,29.3,28.0,00.0,37.6,30.8,14.4,0005.9,0024.61,0011.58,0009.81
2023-05-01 20:10:00,,0827.4,5.00,0.00,29.3,28.0,00.0,37.6,30.9,14.3,0005.7,0024.74,0011.58,0009.78
2023-05-01 20:11:00,,0827.4,5.00,0.00,29.3,28.0,00.0,37.7,30.9,14.3,0005.5,0024.86,0011.55,0009.78
2023-05-01 20:12:00,,0827.4,5.01,0.00,29.3,28.1,00.0,37.7,30.9,14.3,0005.1,0024.10,0011.55,0009.78
2023-05-01 20:13:00,,0827.4,5.00,0.00,29.4,28.1,00.0,37.7,30.9,14.3,0004.8,0022.42,0011.62,0009.81
2023-05-01 20:14:00,,0827.4,5.01,0.00,29.4,28.2,00.0,37.7,30.9,14.4,0004.6,0023.00,0011.64,0009.80
2023-05-01 20:15:00,,0827.3,5.00,0.00,29.4,28.2,00.0,37.7,31.0,14.7,0004.2,0022.33,0011.62,0009.73
2023-05-01 20:16:00,,0827.4,5.00,0.00,29.4,28.2,00.0,37.7,31.0,14.5,0003.5,0023.53,0011.65,0009.68
2023-05-01 20:17:00,,0827.3,4.99,0.00,29.4,28.2,00.0,37.7,31.0,14.3,0001.6,0024.00,0011.61,0009.64
2023-05-01 20:18:00,,0827.3,5.00,0.00,29.4,28.2,00.0,37.7,31.0,14.3,0000.0,0023.82,0011.62,0009.61
2023-05-01 20:19:00,,0827.3,5.00,0.00,29.4,28.1,00.0,37.8,30.9,14.0,0000.2,0023.79,0011.55,0009.54
2023-05-01 20:20:00,,0827.3,5.00,0.00,29.4,28.1,00.0,37.8,30.9,14.0,0000.5,0023.69,0011.56,0009.48
2023-05-01 20:21:00,,0827.3,5.00,0.00,29.4,28.1,00.0,37.8,31.0,13.5,0000.2,0023.34,0011.56,0009.44
2023-05-01 20:22:00,,0827.3,5.00,0.00,29.4,28.2,00.0,37.8,31.0,13.9,0000.0,0022.67,0011.49,0009.37
2023-05-01 20:23:00,,0827.3,5.00,0.00,29.4,28.2,00.0,37.8,31.0,13.9,0000.0,0022.31,0011.44,0009.32
2023-05-01 20:24:00,,0827.4,4.99,0.00,29.4,28.2,00.0,37.8,31.0,14.2,0000.0,0023.18,0011.39,0009.23
2023-05-01 20:25:00,,0827.4,5.00,0.00,29.4,28.2,00.0,37.8,31.0,13.7,0000.0,0022.84,0011.32,0009.12
2023-05-01 20:26:00,,0827.4,4.99,0.00,29.4,28.2,00.0,37.8,31.0,13.6,0000.7,0023.05,0011.23,0009.06
2023-05-01 20:27:00,,0827.4,5.01,0.00,29.5,28.2,00.0,37.8,31.0,13.5,0003.5,0022.33,0011.13,0009.00
2023-05-01 20:28:00,,0827.3,5.01,0.00,29.5,28.2,00.0,37.8,31.0,13.7,0003.6,0023.01,0011.14,0008.94
2023-05-01 20:29:00,,0827.3,4.99,0.00,29.5,28.2,00.0,37.8,31.0,13.8,0004.3,0024.32,0011.07,0008.86
2023-05-01 20:30:00,,0827.4,4.98,0.00,29.5,28.2,00.0,37.9,31.0,13.4,0005.8,0024.52,0011.07,0008.80
2023-05-01 20:31:00,,0827.4,5.00,0.00,29.5,28.2,00.0,37.9,31.1,13.4,0006.5,0024.09,0010.98,0008.73
2023-05-01 20:32:00,,0827.4,5.02,0.00,29.5,28.3,00.0,37.9,31.1,13.4,0006.6,0023.58,0010.91,0008.67
2023-05-01 20:33:00,,0827.4,4.98,0.00,29.5,28.3,00.0,37.9,31.1,13.7,0006.6,0024.10,0010.90,0008.64
2023-05-01 20:34:00,,0827.4,5.00,0.00,29.5,28.3,00.0,37.9,31.1,13.8,0005.9,0024.90,0010.87,0008.64
2023-05-01 20:35:00,,0827.4,5.01,0.00,29.5,28.3,00.0,37.9,31.1,13.5,0005.9,0024.56,0010.83,0008.66
2023-05-01 20:36:00,,0827.4,4.99,0.00,29.6,28.3,00.0,37.9,31.1,13.7,0005.5,0025.34,0010.85,0008.72
2023-05-01 20:37:00,,0827.4,5.00,0.00,29.6,28.3,00.0,37.9,31.2,13.8,0005.5,0026.46,0010.98,0008.79
2023-05-01 20:38:00,,0827.6,5.01,0.00,29.6,28.4,00.0,37.9,31.2,14.1,0005.9,0027.04,0011.08,0008.83
2023-05-01 20:39:00,,0827.5,5.00,0.00,29.6,28.4,00.0,37.9,31.2,13.7,0005.8,0025.84,0010.93,0008.78
2023-05-01 20:40:00,,0827.4,5.00,0.00,29.6,28.4,00.0,38.0,31.2,13.5,0005.4,0026.87,0010.82,0008.71
2023-05-01 20:41:00,,0827.7,5.00,0.00,29.6,28.4,00.0,38.0,31.2,13.2,0004.4,0027.32,0010.78,0008.63
2023-05-01 20:42:00,,0827.4,5.00,0.00,29.6,28.4,00.0,38.0,31.2,13.0,0004.3,0027.51,0010.69,0008.54
2023-05-01 20:43:00,,0827.4,5.00,0.00,29.6,28.4,00.0,38.0,31.2,12.9,0004.7,0028.25,0010.58,0008.43
2023-05-01 20:44:00,,0827.4,4.99,0.00,29.6,28.4,00.0,38.0,31.2,12.9,0005.0,0028.34,0010.48,0008.32
2023-05-01 20:45:00,,0827.4,4.99,0.00,29.6,28.4,00.0,38.0,31.2,13.0,0004.8,0027.75,0010.37,0008.19
2023-05-01 20:46:00,,0827.3,5.00,0.00,29.6,28.4,00.0,38.0,31.2,12.8,0000.0,0026.95,0010.22,0008.03
2023-05-01 20:47:00,,0827.4,5.00,0.00,29.6,28.4,00.0,38.0,31.2,13.1,0000.0,0026.10,0010.10,0007.90
2023-05-01 20:48:00,,0827.3,4.99,0.00,29.6,28.4,00.0,38.0,31.2,13.3,0000.0,0024.95,0010.02,0007.80
2023-05-01 20:49:00,,0827.3,5.02,0.00,29.6,28.3,00.0,38.0,31.2,13.2,0000.0,0025.39,0009.94,0007.75
2023-05-01 20:50:00,,0827.2,4.99,0.00,29.6,28.4,00.0,38.0,31.2,13.2,0000.0,0025.89,0010.01,0007.79
2023-05-01 20:51:00,,0827.2,4.99,0.00,29.7,28.4,00.0,38.0,31.2,13.3,0000.0,0023.34,0010.04,0007.79
2023-05-01 20:52:00,,0827.2,5.00,0.00,29.7,28.4,00.0,38.1,31.2,13.0,0000.0,0022.82,0010.02,0007.77
2023-05-01 20:53:00,,0827.2,5.00,0.00,29.7,28.4,00.0,38.1,31.2,12.8,0000.0,0022.91,0009.98,0007.76
2023-05-01 20:54:00,,0827.1,5.00,0.00,29.7,28.3,00.0,38.1,31.2,12.8,0000.0,0023.45,0009.98,0007.75
2023-05-01 20:55:00,,0827.2,5.00,0.00,29.7,28.4,00.0,38.1,31.2,13.0,0000.0,0023.03,0009.92,0007.73
2023-05-01 20:56:00,,0827.2,5.00,0.00,29.7,28.4,00.0,38.1,31.3,13.7,0000.0,0022.66,0009.83,0007.67
2023-05-01 20:57:00,,0827.1,5.00,0.00,29.7,28.5,00.0,38.1,31.3,13.4,0000.0,0022.77,0009.86,0007.62
2023-05-01 20:58:00,,0827.1,5.00,0.00,29.7,28.5,00.0,38.1,31.2,13.3,0000.0,0022.57,0009.72,0007.55
2023-05-01 20:59:00,,0827.0,5.00,0.00,29.7,28.5,00.0,38.1,31.3,12.7,0000.0,0023.21,0009.55,0007.48
